STARLINK-1187 (45219 NORAD) Tracking and Keplerian Element Data

This shows tracking and keplerian element data for the satellite.

Feedback or suggestion? Click here.




ElementValue
Catalog45219
NameSTARLINK-1187
Epoch Orbit182
Epoch Day87.91667824
Epoch Year2020
RAAN72.4117
Inclination52.9973
Eccentricity0.000435
Argument of Perigee288.4376
Mean Anonmoly176.7554
Mean Motion15.62746673
Decay Rate0.00033248
L11 45219U 20012AT 20087.91667824 .00033248 00000-0 36742-3 0 9991
L22 45219 52.9973 72.4117 0004350 288.4376 176.7554 15.62746673 1823

Live tracking and technical data element details for STARLINK-1187 (NORAD 45219). STARLINK-1187 can be tracked NOW for your location showing map with azimuth and elevation plus other details from your city location.

Track the satellite on the map from your city or location and see movement details for azimuth, elevation, latitude, longitude, range, height, and movement on the map or in text.







IsCatalogInMostPopularTable: catalog: 45219, numindb: 5
Update: records affected: 1



GetName: 45219 STARLINK-1187

Hit Count: updated at: Tue, 31 Mar 2020 13:45:14 GMT